www.pogodaiklimat.ru

Погода и климат >> Архив погоды >> Россия >> Якутия >> Верхоянск


АРХИВ ПОГОДЫ в Верхоянске

Время (UTC), дата Ветер
(напр.,м/с)
 
Видим.   Явления Облачность Т
(С)
Тd
(С)
f
(%)
Тe
(С)
Тes
(С)
Комфортность P
(гПа)
Po
(гПа)
Тmin
(С)
Tmax
(С)
R
(мм)
S
(см)
18 18.03 ЮЗ 2 20 км 9/0
[Cs]
-11.0 -17.2 60 -15 -15 тепло 1019.9 1001.9
21 18.03 ЮЗ 1 50 км 8/0
[Ac trans Ci fib]
-20.7 -24.7 70 -24 -24 по сезону 1020.8 1002.1 -21.1 30
00 19.03 СВ 1 50 км 8/0
[Cs]
-13.9 -19.1 65 -16 -15 тепло 1020.4 1002.2 -22.5
03 19.03 Ю 4 50 км 5/0
[Ci fib]
-4.7 -12.9 53 -11 -9 тепло 1019.2 1001.6
06 19.03 Ю 4 50 км 5/0
[Ci fib]
-2.7 -12.2 48 -8 -7 тепло 1018.7 1001.2
09 19.03 Ю 1 50 км 8/0
[Ci fib]
-5.6 -13.3 55 -7 -7 тепло 1019.2 1001.5 -1.9
12 19.03 СВ 2 20 км 3/0
[Ac trans Ci fib]
-15.6 -20.7 65 -21 -21 по сезону 1020.5 1002.1
15 19.03 штиль 0 20 км ясно -21.5 -24.0 80 -22 -22 по сезону 1021.6 1002.7
18 19.03 СЗ 1 20 км ясно -24.0 -25.9 84 -27 -27 по сезону 1022.1 1003.1
21 19.03 штиль 0 50 км 10/0
[Ac trans Cs]
-23.0 -24.9 84 -23 -23 тепло 1022.9 1003.9 -25.0 29
00 20.03 ЮЗ 1 50 км 6/0
[Ac trans Ci fib]
-17.5 -19.4 85 -20 -19 тепло 1022.8 1004.2
03 20.03 СВ 2 50 км 9/1 1000 м
[Sc Ac trans Ci fib]
-9.1 -13.6 70 -13 -12 тепло 1021.5 1003.5
06 20.03 СВ 2 50 км 9/0
[Ac trans]
-6.1 -11.9 63 -10 -9 тепло 1020.3 1002.6
09 20.03 СВ 3 50 км 9/0
[Ac trans]
-6.5 -12.0 65 -12 -12 тепло 1020.7 1002.9 -5.5
12 20.03 С 3 20 км 10/0
[Ac und]
-7.6 -13.6 62 -13 -13 тепло 1021.5 1003.6
15 20.03 СВ 2 20 км 9/0
[Ci fib]
-11.8 -16.2 70 -16 -16 тепло 1022.6 1004.4
18 20.03 С 1 20 км 5/0
[Ci fib]
-19.5 -21.4 85 -22 -22 тепло 1024.1 1005.4
21 20.03 С 1 50 км 10/0
[Ac und]
-17.2 -19.1 85 -20 -20 тепло 1024.6 1006.1 -20.4 29
00 21.03 штиль 0 50 км 9/0
[Ac trans]
-12.4 -15.1 80 -12 -11 тепло 1024.3 1006.1
03 21.03 СВ 1 50 км 9/0
[Ac trans Ci fib]
-7.3 -12.1 68 -9 -7 тепло 1023.2 1005.4
06 21.03 СВ 2 50 км 8/0
[Ci fib]
-3.5 -11.0 56 -7 -5 тепло 1021.2 1003.6
09 21.03 СВ 2 50 км 10/0
[Ac und]
-3.4 -9.9 61 -7 -7 тепло 1020.8 1003.2 -3.0
12 21.03 С 3 20 км 10/0
[Ac As]
-5.5 -10.6 67 -11 -11 тепло 1020.8 1003.1
15 21.03 СВ 2 20 км 9/0
[Ac trans]
-6.6 -11.2 70 -11 -11 тепло 1020.6 1002.8
18 21.03 З 1 20 км 3/0
[Ci fib]
-16.0 -17.9 85 -19 -19 тепло 1020.7 1002.3
21 21.03 штиль 0 50 км 1/0
[Ac trans]
-20.0 -21.9 85 -20 -20 тепло 1020.9 1002.3 -20.1 28
00 22.03 ЮЗ 1 50 км 8/0
[Ci fib]
-14.7 -17.4 80 -17 -15 тепло 1020.6 1002.3 -21.6
03 22.03 штиль 0 50 км 8/0
[Ci fib]
-7.4 -11.3 74 -8 -4 тепло 1019.9 1002.1
06 22.03 С 1 50 км 9/0
[Cs]
-4.1 -10.9 59 -6 -4 тепло 1019.3 1001.6
09 22.03 СВ 1 50 км 9/0
[Cs]
-4.2 -10.1 63 -6 -6 тепло 1019.9 1002.4 -3.0
12 22.03 СЗ 1 20 км 3/0
[Ci fib]
-13.3 -16.8 75 -16 -16 тепло 1023.0 1004.7
15 22.03 С 1 20 км ясно -20.0 -21.9 85 -23 -23 по сезону 1024.5 1005.8
18 22.03 З 1 20 км ясно -24.0 -25.9 84 -27 -27 по сезону 1026.1 1007.1
21 22.03 СВ 1 50 км ясно -26.5 -28.4 84 -30 -30 по сезону 1027.3 1008.0 -26.5 28
00 23.03 З 1 50 км ясно -19.2 -21.1 85 -22 -20 по сезону 1027.0 1008.2 -27.2
03 23.03 З 1 50 км ясно -9.1 -14.1 67 -11 -7 тепло 1024.9 1006.9
06 23.03 СВ 2 50 км ясно -5.5 -11.6 62 -9 -7 тепло 1022.0 1004.3
09 23.03 СВ 1 50 км ясно -4.8 -11.5 59 -7 -7 тепло 1020.6 1003.0 -3.9
12 23.03 штиль 0 20 км ясно -17.0 -20.4 75 -17 -17 тепло 1021.0 1002.5
15 23.03 штиль 0 20 км ясно -22.5 -24.3 85 -23 -23 по сезону 1020.4 1001.6
18 23.03 штиль 0 20 км ясно -24.5 -26.4 84 -25 -25 по сезону 1020.0 1001.0
21 23.03 штиль 0 50 км ясно -27.7 -29.5 85 -28 -28 по сезону 1020.1 1000.8 -27.8 28
00 24.03 З 1 50 км 3/0
[Ci fib]
-20.3 -22.2 85 -23 -21 по сезону 1019.4 1000.8 -28.3
03 24.03 штиль 0 50 км 6/0
[Ci fib]
-10.0 -14.8 68 -10 -6 тепло 1017.4 999.5
06 24.03 СВ 2 50 км 3/0
[Ci fib]
-5.7 -12.4 59 -10 -8 по сезону 1016.5 998.8
09 24.03 С 2 50 км 10/0
[Cs]
-6.2 -13.1 58 -10 -10 тепло 1016.3 998.6 -5.0
12 24.03 СВ 1 20 км 10/0
[Cs]
-9.5 -14.7 66 -12 -12 тепло 1016.8 998.9
15 24.03 штиль 0 20 км 10/0
[Cs]
-15.0 -17.7 80 -15 -15 тепло 1017.2 998.9
18 24.03 штиль 0 20 км 6/0
[Ci fib]
-19.4 -21.3 85 -19 -19 тепло 1017.7 999.1
21 24.03 Ю 1 50 км 10/0
[Ac As]
-21.0 -22.9 85 -24 -24 по сезону 1018.5 999.8 -21.0 28
00 25.03 штиль 0 50 км 10/0
[Cs]
-15.1 -17.1 85 -15 -13 тепло 1018.6 1000.3 -21.5
03 25.03 штиль 0 50 км 10/0
[Cs]
-15.1 -17.1 85 -15 -11 по сезону 1018.6 1000.3 -21.5
06 25.03 СВ 1 50 км 8/0
[Cs]
-4.5 -10.6 62 -6 -4 тепло 1016.5 999.0
09 25.03 СВ 2 50 км 1/0
[Ci fib]
-4.5 -11.0 60 -8 -8 тепло 1016.1 998.5 -4.4
12 25.03 С 1 20 км ясно -11.4 -14.9 75 -14 -14 тепло 1016.1 998.1

 

Местоположение метеостанции Верхоянск (Якутия, Россия): широта 67.57 долгота 133.40 высота над уровнем моря 136 м.

В архиве по умолчанию представлена погода в Верхоянске за последнюю неделю. Архивные данные за месяц целиком и за предыдущие месяцы, начиная с января 2011 года, Вы можете получить, выбрав интересующий диапазон дат из раскрывающегося списка и нажав кнопку "Ввод!".

Внимание! Время в таблицах - всемирное. Для получения местного времени необходимо прибавить поправку, которая в Верхоянске равна 10 ч.

Смотрите также архив погоды в соседних городах и на ближайших метеорологических станциях:

Погода в Батагае (Якутия, Россия) (52 км)
Погода в Екюччю (Якутия, Россия) (118 км)
Погода в Батагай-Алыте (Якутия, Россия) (129 км)
Погода в Усть-Чарках (Якутия, Россия) (162 км)
Погода в Иэме (Якутия, Россия) (274 км)
Погода в Усть-Куйге (Якутия, Россия) (284 км)
Погода в Себян-Кюеле (Якутия, Россия) (294 км)
Погода в Депутатском (Якутия, Россия) (329 км)
Погода в Юбилейной (Якутия, Россия) (373 км)
Погода в Джарджане (Якутия, Россия) (409 км)

Пояснения к столбцам:

Ветер - указаны скорость ветра в м/с - средняя за 10 мин, порывы в срок и между сроками (в фигурных скобках) и направление, откуда дует ветер: С - северный, СВ - северо-восточный, В - восточный, ЮВ - юго-восточный, Ю - южный, ЮЗ - юго-западный, З - западный, СЗ - северо-западный.
Видимость - горизонтальная дальность видимости в метрах или километрах. При видимости от 1 до 10 км при отсутствии осадков обычно наблюдается дымка, при ухудшении видимости до 1 км и менее - туман. В сухую погоду видимость может ухудшаться дымом, пылью или мглою.
Явления - указаны атмосферные явления, наблюдавшиеся в срок или в последний час перед сроком; фигурными скобками обозначены явления, наблюдавшиеся между сроками (за 1-3 часа до срока); квадратными скобками обозначены град или гололедные отложения с указанием их диаметра в мм.
Облачность - указаны через наклонную черту общая и нижняя облачность в баллах и высота нижней границы облаков в метрах; квадратными скобками обозначены формы облаков: Ci - перистые, Cs - перисто-слоистые, Cc - перисто-кучевые, Ac - высококучевые, As - высокослоистые, Sc - слоисто-кучевые, Ns - слоисто-дождевые, Cu - кучевые, Cb - кучево-дождевые. Подробнее классификацию облаков см. в Атласе облаков (PDF).
T - Температура воздуха - температура, измеренная на высоте 2 м над землей.
Td - Температура точки росы - температура, при понижении до которой содержащийся в воздухе водяной пар достигнет насыщения.
f - Относительная влажность воздуха - влажноcть воздуха, измеренная на высоте 2 м над землей.
Te - Эффективная температура - температура, которую ощущает одетый по сезону человек в тени. Характеристика душности погоды. При расчете учитывается влияние влажности воздуха и скорости ветра на теплоощущения человека.
Tes - Эффективная температура на солнце - температура, которую ощущает человек, с поправкой на солнечный нагрев. Характеристика знойности погоды. Зависит от высоты солнца над горизонтом, облачности и скорости ветра. Ночью, в пасмурную погоду, а также при ветре 12 м/с и более поправка равна нулю.
P - Атмосферное давление - приведенное к уровню моря атмосферное давление.
Po - Атмосферное давление - измеренное на уровне метеостанции атмосферное давление.
Tmin - Минимальная температура - минимум температуры воздуха на высоте 2 м над землей.
Tmax - Максимальная температура - максимум температуры воздуха на высоте 2 м над землей.
R - Количество осадков - Количество выпавших осадков, мм. При наведении курсора мыши на число - период времени, за который выпало указанное количество осадков.
S - Снежный покров - Высота снежного покрова, см. При наведении курсора мыши на число - состояние снежного покрова и степень покрытия местности в баллах.